Lexington Weather

Lexington, Massachusetts, USA

34°F
4/16/2021 11:14am 
  • Lexington Conditions: Light snow, Mist, Overcast
  • Temperature: 34.0°F / 1.1°CWarmer 0.2°F than last hour.
  • Dew Point: 32.7°FIncreased 0.2°Fsince last hour.
  • Relative Humidity: 95
  • Wind: Wind from NNW NNW Calm, 10-min avg: 1 mph, gust: 4 mph
  • Barometer: 29.46 inFalling 0.03  inHg/hr Falling Slowly
  • Visibility: ¾ mile
  • Snow Today: 1.7 in
  •   

Regional Weather Roundup
for Boston / Norton, MA

        
000
ASUS41 KBOX 150504
RWRBOX

REGIONAL WEATHER ROUNDUP
NATIONAL WEATHER SERVICE BOSTON/NORTON MA
100 AM EDT THU APR 15 2021

NOTE:  "FAIR" INDICATES FEW OR NO CLOUDS BELOW 12,000 FEET WITH NO 
SIGNIFICANT WEATHER AND/OR OBSTRUCTIONS TO VISIBILITY.

MAZALL-150600-
EASTERN MASSACHUSETTS
  
CITY           SKY/WX    TMP DP  RH WIND       PRES   REMARKS
BOSTON         CLOUDY    48  40  73 SE7       29.94F                  
BEVERLY        NOT AVBL                                               
LAWRENCE       MOCLDY    46  39  76 S5        29.95S                  
BEDFORD        MOCLDY    48  36  63 SE3       29.92S                  
BLUE HILL        N/A     44  39  82 SE7       29.91S                  
NORWOOD        MOCLDY    47  39  74 S3        29.93F                  
MARSHFIELD     CLOUDY    45  43  93 CALM      29.94S                  
PLYMOUTH       CLEAR     41  38  89 SE3       29.93F                  
TAUNTON          N/A    N/A N/A N/A MISG      29.93F                  
NEW BEDFORD      N/A     45  40  82 SE7       29.93F                  
$$

MAZALL-150600-
CAPE COD AND THE ISLANDS
  
CITY           SKY/WX    TMP DP  RH WIND       PRES   REMARKS
FALMOUTH       CLEAR     39  36  87 SE6       29.95F                  
HYANNIS        CLEAR     39  34  82 SE3       29.94S                  
CHATHAM        CLEAR     42  37  82 CALM      29.96F                  
PROVINCETOWN   CLEAR     41  32  70 SE7         N/A                   
NANTUCKET      CLEAR     38  35  89 E7        29.95F                  
MARTHAS VNYRD  MOCLDY    42  38  85 SE6       29.94F                  
$$
 
MAZALL-150600-
CENTRAL AND WESTERN MASSACHUSETTS
  
CITY           SKY/WX    TMP DP  RH WIND       PRES   REMARKS
WORCESTER      CLOUDY    45  37  73 S8        29.90F                  
FITCHBURG      MOCLDY    48  39  71 SE7       29.92S                  
ORANGE         CLOUDY    50  42  74 SE6       29.89S                  
SPRINGFIELD    CLOUDY    49  41  73 SE7       29.87F                  
WESTFIELD      MOCLDY    50  43  77 S6        29.87F                  
NORTH ADAMS    CLOUDY    58  43  57 E3        29.82F                  
PITTSFIELD     CLOUDY    52  43  71 CALM      29.82F                  
$$
 
RIZALL-150600-
RHODE ISLAND
  
CITY           SKY/WX    TMP DP  RH WIND       PRES   REMARKS
PROVIDENCE     MOCLDY    46  41  82 SE5       29.93S                  
NEWPORT        CLOUDY    44  41  89 SE8       29.92F                  
BLOCK ISLAND   PTCLDY    43  40  89 SE9       29.92F                  
SMITHFIELD     CLOUDY    44  41  89 CALM      29.92F                  
WESTERLY       CLOUDY    44  40  85 SE6       29.92F                  
$$
 
CTZALL-150600-
CONNECTICUT
  
CITY           SKY/WX    TMP DP  RH WIND       PRES   REMARKS
BRADLEY INTL   CLOUDY    49  42  77 SE8       29.88F                  
HARTFORD       CLOUDY    49  42  77 SE5       29.89F                  
BRIDGEPORT     CLOUDY    49  46  90 NE13      29.88F                  
DANBURY        CLOUDY    53  46  77 SE5       29.87S                  
GROTON         CLOUDY    46  42  86 E9        29.91F                  
NEW HAVEN      CLOUDY    50  48  93 E8        29.88F                  
CHESTER        CLOUDY    46  46 100 SE7       29.89F                  
MERIDEN        CLOUDY    49  44  83 SE5       29.89F                  
WILLIMANTIC    CLOUDY    46  40  79 CALM      29.91F                  
OXFORD         CLOUDY    46  46 100 SE7       29.88S                  
$$

MEZ002-015-021-024-NHZ003-005-008-011-012-014-VTZ005-008-150600-
NORTHERN NEW ENGLAND
  
CITY           SKY/WX    TMP DP  RH WIND       PRES   REMARKS
PORTLAND ME    CLEAR     42  39  89 CALM      29.95F                  
BANGOR ME      CLEAR     38  31  76 S3        29.95S                  
CONCORD NH     MOCLDY    44  39  82 CALM      29.93S                  
MANCHESTER NH  MOCLDY    47  37  68 SE7       29.91S                  
NASHUA NH      MOCLDY    45  38  76 CALM      29.93S                  
PORTSMOUTH NH  CLOUDY    43  37  77 CALM      29.95F                  
JAFFREY NH     CLOUDY    44  37  76 CALM      29.90S                  
KEENE NH       CLOUDY    49  40  71 CALM      29.89S                  
BURLINGTON VT  CLOUDY    55  42  61 CALM      29.81F                  
MT. WASHINGTON FOG       32  32 100 SW1         N/A  VSB 1/8          
$$

NYZ052-076-150600-
EASTERN NEW YORK
  
CITY           SKY/WX    TMP DP  RH WIND       PRES   REMARKS
ALBANY         CLOUDY    57  45  64 S5        29.81F                  
NEW YORK CITY  CLOUDY    59  50  72 S9        29.85S                  
$$
 
ANZALL-150600-
MARINE OBSERVATIONS
  
STATION/POSITION TIME  TEMP    WIND        PRES    VSBY  WAVE
                       AIR SEA DIR/SP/G                  HT/PER
                 (UTC) (F)     (DEG/KT/KT) (MB)    (MI)  (FT/S)
BOSTON BUOY      0440   45 44  170/  8/  8 1014.3S
BUZZARDS BAY     0400          130/ 13/ 13 1014.6F
NANTUCKET SOUND  0440      47                N/A
MASS BAY-STELLWA 0404   45     140/  8/ 10 1012.8F  1 7/8  5/11
ISLE OF SHOALS   0400   45     150/  9/ 10 1013.8F
S OF BLOCK IS    0426      45                N/A           3/11
$$

......................KEY.........................
  SKY/WX - SKY CONDITION/PRESENT WEATHER
  TMP    - TEMPERATURE IN FAHRENHEIT
  DWPT   - DEWPOINT IN FAHRENHEIT
  RH     - RELATIVE HUMIDITY IN PERCENT
  WIND   - DIRECTION AND SPEED IN MPH
  PRES   - MEAN SEA LEVEL PRESSURE IN INCHES OF HG
  WCI    - WIND CHILL INDEX
  VSB    - VISIBILITY IN MILES
  HX     - HEAT INDEX
  TC     - TEMPERATURE IN CELSIUS
  VRB    - VARIABLE WIND DIRECTION
  N/A    - NOT AVAILABLE
  
      

Other recent Regional Weather Roundups

Fri Apr 16, 11:04am

Fri Apr 16, 10:05am

Fri Apr 16, 9:04am

Fri Apr 16, 8:04am

Fri Apr 16, 7:04am

Fri Apr 16, 6:04am

Fri Apr 16, 5:04am

Fri Apr 16, 4:04am

Fri Apr 16, 3:04am

Fri Apr 16, 2:04am

Fri Apr 16, 1:04am

Fri Apr 16, 12:04am

Thu Apr 15, 11:05pm

Thu Apr 15, 10:04pm

Thu Apr 15, 9:04pm

Thu Apr 15, 8:04pm

Thu Apr 15, 7:05pm

Thu Apr 15, 6:04pm

Thu Apr 15, 5:05pm

Thu Apr 15, 4:04pm

Thu Apr 15, 3:05pm

Thu Apr 15, 2:04pm

Thu Apr 15, 1:05pm

Thu Apr 15, 12:04pm

Thu Apr 15, 11:04am

Thu Apr 15, 10:05am

Thu Apr 15, 9:04am

Thu Apr 15, 8:04am

Thu Apr 15, 7:04am

Thu Apr 15, 6:04am

Thu Apr 15, 5:04am

Thu Apr 15, 4:04am

Thu Apr 15, 3:04am

Thu Apr 15, 2:04am

Thu Apr 15, 12:04am

Wed Apr 14, 11:04pm

Wed Apr 14, 10:04pm

Wed Apr 14, 9:04pm

Wed Apr 14, 8:04pm

Wed Apr 14, 7:04pm

Wed Apr 14, 6:04pm

Wed Apr 14, 5:05pm

Wed Apr 14, 4:04pm

Wed Apr 14, 3:05pm

Wed Apr 14, 2:04pm

Wed Apr 14, 1:05pm

Wed Apr 14, 12:04pm

Wed Apr 14, 11:04am

Wed Apr 14, 10:04am

Wed Apr 14, 9:04am

Wed Apr 14, 8:04am

Wed Apr 14, 7:04am

Wed Apr 14, 6:04am

Wed Apr 14, 5:04am

Wed Apr 14, 4:04am

Wed Apr 14, 3:04am

Wed Apr 14, 2:04am

Wed Apr 14, 1:04am

Wed Apr 14, 12:04am

Tue Apr 13, 11:04pm

Tue Apr 13, 10:05pm

Tue Apr 13, 9:05pm

Tue Apr 13, 8:05pm

Tue Apr 13, 7:04pm

Tue Apr 13, 6:04pm

Tue Apr 13, 5:05pm

Tue Apr 13, 4:04pm

Tue Apr 13, 3:04pm

Tue Apr 13, 2:05pm

Tue Apr 13, 1:04pm

Tue Apr 13, 12:05pm

Tue Apr 13, 11:05am

Tue Apr 13, 10:04am

Tue Apr 13, 9:04am

Tue Apr 13, 8:04am

Tue Apr 13, 7:04am

Tue Apr 13, 6:04am

Tue Apr 13, 5:04am

Tue Apr 13, 4:04am

Tue Apr 13, 3:04am

Tue Apr 13, 2:04am

Tue Apr 13, 1:04am

Tue Apr 13, 12:05am

Mon Apr 12, 11:04pm

Mon Apr 12, 10:04pm

Mon Apr 12, 9:04pm

Mon Apr 12, 8:04pm

Mon Apr 12, 7:05pm

Mon Apr 12, 6:04pm

Mon Apr 12, 5:04pm

Mon Apr 12, 4:04pm

Mon Apr 12, 3:05pm

Mon Apr 12, 2:04pm

Mon Apr 12, 1:05pm

Mon Apr 12, 12:04pm

Mon Apr 12, 11:04am

Mon Apr 12, 10:04am

Mon Apr 12, 9:04am

Mon Apr 12, 8:04am

Mon Apr 12, 7:04am

Mon Apr 12, 6:04am

Mon Apr 12, 5:04am

Mon Apr 12, 4:04am

Mon Apr 12, 3:04am

Mon Apr 12, 2:04am

Mon Apr 12, 1:05am

Mon Apr 12, 12:04am

Sun Apr 11, 11:04pm

Sun Apr 11, 10:04pm

Sun Apr 11, 9:04pm

Sun Apr 11, 8:04pm

Sun Apr 11, 7:04pm

Sun Apr 11, 6:05pm

Sun Apr 11, 5:05pm

Sun Apr 11, 4:04pm

Sun Apr 11, 3:05pm

Sun Apr 11, 2:05pm

Sun Apr 11, 1:05pm

Sun Apr 11, 12:04pm

Sun Apr 11, 11:05am

Sun Apr 11, 10:05am

Sun Apr 11, 9:04am

Sun Apr 11, 8:04am

Sun Apr 11, 7:04am

Sun Apr 11, 6:04am

Sun Apr 11, 5:04am

Sun Apr 11, 4:04am

Sun Apr 11, 3:04am

Sun Apr 11, 2:04am

Sun Apr 11, 1:05am

Sun Apr 11, 12:04am

Sat Apr 10, 11:05pm

Sat Apr 10, 10:04pm

Sat Apr 10, 9:04pm

Sat Apr 10, 8:04pm

Sat Apr 10, 7:05pm

Sat Apr 10, 6:04pm

Sat Apr 10, 5:04pm

Sat Apr 10, 4:04pm

Sat Apr 10, 3:04pm

Sat Apr 10, 2:05pm

Sat Apr 10, 1:04pm

Sat Apr 10, 12:04pm

Sat Apr 10, 11:04am

Sat Apr 10, 10:04am

Sat Apr 10, 9:04am

Sat Apr 10, 8:04am

Sat Apr 10, 7:04am

Sat Apr 10, 6:04am

Sat Apr 10, 5:04am

Sat Apr 10, 4:04am

Sat Apr 10, 3:04am

Sat Apr 10, 2:04am

Sat Apr 10, 1:05am

Sat Apr 10, 12:04am

Fri Apr 9, 11:04pm

Fri Apr 9, 10:05pm

Fri Apr 9, 9:04pm

Fri Apr 9, 8:05pm

Fri Apr 9, 7:05pm

Fri Apr 9, 6:04pm

Fri Apr 9, 5:04pm

Fri Apr 9, 4:05pm

Fri Apr 9, 3:05pm

Fri Apr 9, 2:04pm

Fri Apr 9, 1:04pm

Fri Apr 9, 12:04pm

Meta data:

ID: bab8257e-a9f5-45a0-bc39-8c9e7da666d9
Link: https://api.weather.gov/products/bab8257e-a9f5-45a0-bc39-8c9e7da666d9